Ardmore, OK

3:11 PM CDT on May 23, 2017 (GMT -0500)
Ardmore Municipal

Weather History for KADM - November, 2011

Change the Weather History Date:

Monday, November 7, 2011

  Actual Average Record
Temperature  
Mean Temperature 68 °F -  
Max Temperature 75 °F 62 °F 86 °F (2005)
Min Temperature 62 °F 45 °F 32 °F (2013)
Cooling Degree Days 4    
Growing Degree Days 18 (Base 50)    
Moisture  
Dew Point 63 °F    
Average Humidity 84    
Maximum Humidity 94    
Minimum Humidity 73    
Precipitation  
Precipitation 0.21 in - - ()
Sea Level Pressure  
Sea Level Pressure 29.95 in    
Wind  
Wind Speed 7 mph (SSE)    
Max Wind Speed 17 mph    
Max Gust Speed 25 mph    
Visibility 10 miles    
Events Rain , Thunderstorm    
Averages and records for this station are not official NWS values.
T = Trace of Precipitation, MM = Missing Value Source: NWS Daily Summary

Daily Weather History Graph

Daily Weather History Graph

Search for Another Location

Airport or City:

Trip Planner

Search our weather history database for the weather conditions in past years. The results will help you decide how hot, cold, wet, or windy it might be!

Date:

Astronomy

Nov. 07, 2011 Rise Set
Actual Time 6:53 AM CST 5:29 PM CST
Civil Twilight 6:27 AM CST 5:55 PM CST
Nautical Twilight 5:57 AM CST 6:25 PM CST
Astronomical Twilight 5:27 AM CST 6:55 PM CST
Moon 3:36 PM CST (11/7) 4:02 AM CST (11/7)
Length of Visible Light 11h 28m
Length of Day
10h 36m
Waxing Gibbous, 92% of the Moon is Illuminated
Nov 7
Waxing Gibbous
Nov 10
Full
Nov 18
Last Quarter
Nov 25
New
Dec 2
First Quarter

Hourly Weather History & Observations

Time (CST) Temp. Dew Point Humidity Pressure Visibility Wind Dir Wind Speed Gust Speed Precip Events Conditions
12:15 AM 62.6 °F 60.8 °F 94% 30.00 in 10.0 mi Calm Calm - 0.02 in Rain , Thunderstorm Light Thunderstorms and Rain
12:35 AM 62.6 °F 60.8 °F 94% 29.99 in 10.0 mi East 5.8 mph - 0.02 in Thunderstorm Thunderstorm
12:55 AM 62.6 °F 60.8 °F 94% 30.01 in 10.0 mi NW 11.5 mph 17.3 mph 0.02 in Thunderstorm Thunderstorm
1:15 AM 64.4 °F 62.6 °F 94% 30.00 in 10.0 mi Calm Calm - N/A Thunderstorm Thunderstorm
1:35 AM 64.4 °F 60.8 °F 88% - 10.0 mi North - - N/A   Overcast
1:55 AM 64.4 °F 60.8 °F 88% 30.00 in - South 8.1 mph - N/A Thunderstorm Thunderstorm
2:15 AM 68.0 °F 62.6 °F 83% 30.00 in 10.0 mi SSE 9.2 mph - N/A Thunderstorm Overcast
2:35 AM 68.0 °F 62.6 °F 83% 30.00 in 10.0 mi SSE 8.1 mph - N/A Thunderstorm Overcast
2:55 AM 68.0 °F 62.6 °F 83% 30.00 in 10.0 mi South 9.2 mph - N/A Thunderstorm Overcast
3:15 AM 68.0 °F 62.6 °F 83% 30.00 in 10.0 mi South 10.4 mph - N/A Thunderstorm Overcast
3:35 AM 68.0 °F 62.6 °F 83% 30.00 in 10.0 mi SSE 8.1 mph - N/A Thunderstorm Overcast
3:55 AM 68.0 °F 62.6 °F 83% 30.00 in 10.0 mi SSE 8.1 mph - N/A Thunderstorm Thunderstorm
4:15 AM 68.0 °F 62.6 °F 83% 30.00 in 10.0 mi Calm Calm - N/A Thunderstorm Overcast
4:35 AM 68.0 °F 62.6 °F 83% 30.00 in 10.0 mi Calm Calm - N/A   Overcast
4:55 AM 68.0 °F 62.6 °F 83% 30.01 in 10.0 mi Calm Calm - N/A Thunderstorm Overcast
5:15 AM 68.0 °F 62.6 °F 83% 30.01 in 10.0 mi SSE 9.2 mph - N/A   Overcast
5:35 AM 68.0 °F 62.6 °F 83% 30.01 in 10.0 mi SSE 6.9 mph - N/A   Overcast
5:55 AM 68.0 °F 62.6 °F 83% 30.01 in 10.0 mi SSE 8.1 mph - N/A   Overcast
7:55 AM 68.0 °F 64.4 °F 88% 30.02 in 10.0 mi SE 10.4 mph - N/A   Mostly Cloudy
9:55 AM 69.8 °F 64.4 °F 83% 30.03 in 10.0 mi SSE 8.1 mph - N/A   Mostly Cloudy
1:55 PM 75.2 °F 66.2 °F 73% 29.93 in 10.0 mi SE 11.5 mph 16.1 mph N/A   Scattered Clouds
2:55 PM 69.8 °F 64.4 °F 83% 29.90 in 10.0 mi SE 12.7 mph 17.3 mph N/A   Mostly Cloudy
3:55 PM 71.6 °F 64.4 °F 78% 29.89 in 10.0 mi SE 13.8 mph 20.7 mph N/A   Scattered Clouds
4:55 PM 71.6 °F 64.4 °F 78% 29.89 in 10.0 mi SE 13.8 mph 19.6 mph N/A   Mostly Cloudy
6:55 PM 68.0 °F 64.4 °F 88% 29.85 in 10.0 mi SE 17.3 mph 23.0 mph N/A   Overcast
7:55 PM 68.0 °F 62.6 °F 83% 29.85 in 10.0 mi Calm Calm - N/A   Overcast
8:55 PM 68.0 °F 62.6 °F 83% 29.87 in 10.0 mi Calm Calm - N/A   Overcast
9:15 PM 68.0 °F 62.6 °F 83% 29.87 in 10.0 mi SE 9.2 mph - N/A   Overcast
9:55 PM 69.8 °F 62.6 °F 78% 29.88 in 10.0 mi South 13.8 mph 25.3 mph 0.01 in Rain , Thunderstorm Thunderstorms and Rain
10:15 PM 68.0 °F 62.6 °F 83% 29.87 in 10.0 mi South 11.5 mph 21.9 mph N/A Thunderstorm Unknown
10:35 PM 68.0 °F 62.6 °F 83% 29.86 in 7.0 mi SSE 15.0 mph 20.7 mph 0.02 in Rain Light Rain
10:55 PM 68.0 °F 62.6 °F 83% 29.86 in 7.0 mi South 10.4 mph - 0.04 in Rain Rain
11:15 PM 68.0 °F 62.6 °F 83% 29.85 in 5.0 mi SSE 4.6 mph 19.6 mph 0.13 in Rain , Thunderstorm Thunderstorms and Rain
11:35 PM 68.0 °F 64.4 °F 88% 29.86 in 10.0 mi SSW 10.4 mph 20.7 mph 0.14 in Rain , Thunderstorm Rain
11:55 PM 68.0 °F 64.4 °F 88% 29.85 in 10.0 mi South 12.7 mph 18.4 mph 0.14 in   Overcast